SCP
0 0 -0 -0 -0 -0 0 0 0 0 0 0 0 0 0 0 0 0 0 0 -0 -0 -0 -0 -0 -0 -0 -0 -0 -0 -0 -0 -0 -0 -0 -0 -0 -0 -0 -0 -0 -0 -0 -0 -0 0 -0 -0 -0
0 -0 -0 -0 -0 -0 0 0 0 0 0 0 0 0 0 0 0 0 0 0 0 -0 -0 -0 -0 -0 -0 -0 -0 -0 -0 -0 -0 -0 -0 -0 -0 -0 -0 -0 -0 -0 -0 -0 -0 -0 -0 -0 -0
0 -0 0 0 -0 0 0 0 0 0 0 0 0 0 0 0 0 0 -0 -0 -0 -0 -0 -0 -0 -0 -0 -0 -0 -0 -0 -0 -0 -0 -0 -0 -0 -0 -0 -0 -0 -0 -0 -0 -0 -0 -0 -0 -0
0 -0 -0 0 0 0 -0 0 0 -0 0 0 0 0 0 0 0 0 0 -0 -0 -0 -0 -0 -0 -0 -0 -0 -0 -0 -0 -0 -0 -0 -0 -0 -0 -0 -0 -0 -0 -0 -0 -0 -0 -0 -0 -0 -0
0 0 -0 0 0 0 -0 -0 -0 0 0 0 0 0 0 0 -0 0 0 -0 -0 -0 -0 -0 -0 -0 -0 -0 -0 -0 -0 -0 -0 -0 -0 -0 -0 -0 -0 -0 -0 -0 -0 -0 -0 -0 -0 -0 -0
0 0 0 0 0 0 0 -0 -0 0 0 0 0 0 0 -0 0 0 0 -0 -0 -0 -0 -0 -0 -0 -0 -0 -0 -0 -0 -0 -0 -0 -0 -0 -0 -0 -0 -0 -0 -0 -0 -0 -0 -0 -0 -0 -0
0 0 0 0 0 0 0 -0 0 0 0 0 0 0 0 0 0 0 0 0 0 0 -0 -0 -0 -0 -0 -0 -0 -0 -0 -0 -0 -0 -0 -0 -0 -0 -0 -0 -0 -0 -0 -0 -0 -0 -0 -0 -0
0 0 0 0 0 0 0 0 0 0 0 0 0 0 0 0 0 0 0 0 0 0 0 0 0 0 0 -0 -0 -0 -0 -0 -0 -0 -0 -0 -0 -0 -0 -0 -0 -0 -0 -0 -0 -0 -0 -0 -0
0 0 0 0 0 0 0 0 0 0 0 0 0 0 0 0 0 0 0 0 0 0 0 0 0 0 0 0 0 0 -0 -0 -0 -0 -0 -0 0 0 -0 0 -0 -0 -0 -0 -0 -0 -0 -0 -0
0 0 0 0 0 0 0 0 0 0 0 0 0 0 0 0 0 0 0 0 0 0 0 0 0 0 0 0 0 0 0 0 0 0 0 0 0 0 0 0 0 -0 -0 -0 -0 -0 -0 0 0
0 0 0 0 0 0 0 0 0 0 0 0 0 0 0 0 0 0 0 0 0 0 0 0 0 0 0 0 0 0 0 0 0 0 0 0 0 0 0 0 0 0 0 0 0 0 0 0 0
0 0 0 0 0 0 0 0 0 0 0 0 0 0 0 0 0 0 0 0 0 0 0 0 0 0 0 0 0 0 0 0 0 0 0 0 0 0 0 0 0 0 0 0 0 0 0 0 0
0 0 0 0 0 0 0 0 0 0 0 0 0 0 0 0 0 0 0 0 0 0 0 0 0 0 0 0 0 0 0 0 0 0 0 0 0 0 0 0 0 0 0 0 0 0 0 0 0
0 0 0 0 0 0 0 0 0 0 0 0 0 0 0 0 0 0 0 0 0 0 0 0 0 0 0 0 0 0 0 0 0 0 0 0 0 0 0 0 0 0 0 0 0 0 0 0 0
0 0 0 0 0 0 0 0 0 0 0 0 0 0 0 0 0 0 0 0 0 0 0 0 0 0 0 0 0 0 0 0 0 0 0 0 0 0 0 0 0 0 0 0 0 0 0 0 0
0 0 0 0 0 0 0 0 0 0 0 0 0 0 0 0 0 0 0 0 0 0 0 0 0 0 0 0 0 0 0 0 0 0 0 0 0 0 0 0 0 0 0 0 0 0 0 0 0
0 0 0 0 0 0 0 0 0 0 0 0 0 0 0 0 0 0 0 0 0 0 0 0 0 0 0 0 0 0 0 0 0 0 0 0 0 0 0 0 0 0 0 0 0 0 0 0 0
0 0 0 0 0 0 0 0 0 0 0 0 0 0 0 0 0 0 0 0 0 0 0 0 0 0 0 0 0 0 0 0 0 0 0 0 0 0 0 0 0 0 0 0 0 0 0 0 0
0 0 0 0 0 0 0 0 0 0 0 0 0 0 0 0 0 0 0 0 0 0 0 0 0 0 0 0 0 0 0 0 0 0 0 0 0 0 0 0 0 0 0 0 0 0 0 0 0
0 0 0 0 0 0 0 0 0 0 0 0 0 0 0 0 0 0 0 0 0 0 0 0 0 0 0 0 0 0 0 0 0 0 0 0 0 0 0 0 0 0 0 0 0 0 0 0 0
0 0 0 0 0 0 0 -0 0 0 0 0 0 0 0 0 0 0 0 0 0 0 0 0 0 0 0 0 0 0 0 0 0 0 0 0 0 0 0 0 0 0 0 0 0 0 0 0 0
0 0 0 0 0 0 0 -0 0 0 0 0 0 0 0 0 0 0 0 0 0 0 0 0 0 0 0 0 0 0 0 0 0 0 0 0 0 0 0 0 0 0 0 0 0 0 0 0 0
0 0 0 0 0 0 0 0 0 0 0 0 0 0 0 0 0 0 0 0 0 0 0 0 0 0 0 0 0 0 0 0 0 0 0 0 0 0 0 0 0 0 0 0 0 0 0 0 0
0 0 0 0 0 0 0 0 0 0 0 -0 -0 -0 0 0 0 0 0 0 0 0 0 0 0 0 0 0 0 0 0 0 0 0 0 0 0 0 0 0 0 0 0 0 0 0 0 0 0
0 0 0 0 0 0 0 0 0 0 0 0 0 0 0 0 0 0 0 0 0 0 0 0 0 0 0 0 0 0 0 0 0 0 0 0 0 0 0 0 0 0 0 0 0 0 0 0 0
0 0 0 0 0 0 0 0 0 0 0 0 0 0 0 0 0 0 0 0 0 0 0 0 0 0 0 0 0 0 0 0 0 0 0 0 0 0 0 0 0 0 0 0 0 0 0 0 0
0 0 0 0 0 0 0 0 0 0 0 -0 -0 0 0 0 0 0 0 0 0 0 0 0 0 0 0 0 0 0 0 0 0 0 0 0 0 0 0 0 0 0 0 0 0 0 0 0 0
0 0 0 0 0 0 0 0 0 0 0 0 0 0 0 0 0 0 0 0 0 0 0 0 0 0 0 0 0 0 0 0 0 0 0 0 0 0 0 0 0 0 0 0 0 0 0 0 0
0 0 0 0 0 0 0 0 0 0 0 0 0 0 0 0 0 0 0 0 0 0 0 0 0 0 0 0 0 0 0 0 0 0 0 0 0 0 0 0 0 0 0 0 0 0 0 0 0
0 0 0 0 0 0 0 0 0 0 0 0 0 0 0 -0 0 0 0 0 0 0 0 0 0 0 0 0 0 0 0 0 0 0 0 0 0 0 0 0 0 0 0 0 0 0 0 0 0
Wind_Speed_500mb
6 6 7 4 6 8 3 6 1 5 3 6 16 11 10 5 5 3 32 32 33 34 31 29 26 24 23 22 20 18 18 20 21 26 29 30 31 30 28 27 26 26 25 29 29 27 31 30 30
9 9 8 6 7 5 7 6 8 8 13 28 20 15 5 4 8 19 30 30 33 32 31 29 28 26 23 21 19 18 16 18 20 24 26 29 30 29 28 27 27 25 24 26 24 32 31 28 28
13 11 4 8 6 6 7 8 8 12 25 9 9 6 8 10 20 35 27 29 34 33 32 29 27 26 23 21 19 17 14 12 16 20 23 26 26 26 26 26 25 25 23 23 32 32 33 25 25
12 8 11 7 5 6 6 6 11 25 8 9 12 8 9 14 26 26 30 28 34 35 32 29 26 25 23 21 18 16 13 10 12 16 19 21 22 23 24 25 25 25 25 26 28 27 25 20 21
12 6 8 6 6 4 8 7 31 13 6 10 14 10 9 20 21 24 29 32 36 37 31 28 26 24 23 20 18 16 15 12 13 11 15 17 20 21 22 23 23 23 24 24 25 25 23 21 18
7 6 8 4 7 6 6 18 21 12 7 12 9 16 11 22 26 28 30 34 32 32 29 26 25 23 22 21 18 17 15 12 14 10 10 11 14 17 19 20 22 24 25 24 23 22 21 18 15
11 8 8 8 6 5 9 24 16 18 11 11 7 12 7 26 32 34 35 35 35 30 29 26 24 22 19 19 20 18 16 14 14 10 8 9 12 16 18 18 18 21 22 23 22 21 18 16 15
10 12 8 5 8 9 11 24 13 25 14 11 17 8 7 32 35 39 40 37 38 35 34 27 25 23 20 17 20 19 17 15 12 11 8 10 14 18 21 21 21 20 19 20 21 21 20 19 19
9 9 5 9 13 9 16 12 10 11 11 22 23 13 10 33 39 43 46 44 43 41 40 36 30 25 24 25 22 21 20 17 16 16 12 12 14 18 22 25 27 28 24 21 20 21 22 20 20
8 8 16 8 10 7 11 11 18 11 13 18 23 29 19 30 43 47 51 51 49 48 47 40 39 36 38 32 29 24 22 21 21 19 16 9 7 9 9 17 20 24 26 23 22 22 24 22 22
6 8 8 8 9 8 8 9 16 16 9 27 35 39 36 34 47 50 50 51 48 49 53 50 44 39 39 35 33 30 27 27 30 26 22 16 11 11 7 2 5 10 18 20 17 18 18 16 17
5 3 7 3 7 5 6 6 11 29 25 14 27 30 36 43 50 53 55 54 54 54 56 55 52 40 40 40 37 36 36 37 35 31 28 21 18 17 19 11 7 10 17 14 10 8 9 9 11
4 3 6 7 8 9 8 16 14 31 35 38 30 29 36 44 51 54 55 53 54 56 58 60 56 48 43 44 43 43 42 42 36 37 34 30 25 23 25 19 14 12 10 13 9 10 1 3 8
4 2 7 8 10 9 7 6 6 16 28 42 38 37 37 44 49 56 60 61 61 58 59 60 59 56 49 52 50 48 48 47 43 41 42 36 30 28 26 23 21 19 17 11 11 9 7 6 7
4 5 10 10 6 7 5 14 19 47 40 33 36 42 42 47 53 60 60 62 61 61 60 60 60 59 57 54 54 52 50 51 51 47 38 40 38 33 28 33 29 24 21 17 13 3 6 9 12
7 9 3 4 9 5 13 17 13 11 25 44 47 47 48 52 58 60 63 63 64 64 64 62 61 61 61 59 59 61 60 55 52 54 49 45 47 37 38 39 33 34 27 22 16 15 13 15 15
10 6 9 14 18 5 8 15 9 9 17 31 34 42 50 55 62 65 66 67 69 67 66 64 62 61 61 61 62 63 63 65 56 52 53 51 42 42 47 36 37 39 35 28 23 22 13 19 25
13 9 9 10 8 6 9 26 24 31 24 39 44 46 51 59 67 63 66 68 69 69 68 65 64 63 60 58 59 60 59 64 61 55 55 53 52 48 46 42 42 42 41 33 31 17 23 23 30
11 9 11 10 7 8 18 21 29 40 34 55 69 74 78 82 78 68 67 71 72 74 73 69 65 62 58 56 56 57 59 61 61 61 62 60 59 52 51 46 49 48 38 34 37 25 32 38 40
7 7 11 12 5 12 16 25 25 35 35 61 77 82 90 89 84 76 72 72 81 79 75 70 67 64 61 58 54 54 58 60 58 62 62 64 69 61 59 50 44 43 43 40 36 34 40 44 47
9 12 10 15 5 6 11 16 14 18 46 65 82 86 88 80 79 76 74 77 82 86 81 75 71 68 66 63 59 59 59 59 60 64 58 73 52 41 44 44 43 38 41 37 40 42 41 45 53
12 17 10 7 4 8 3 15 11 15 18 14 64 75 72 64 61 64 61 67 80 85 85 79 74 70 70 66 65 66 67 71 70 66 64 53 51 51 50 52 46 37 37 43 45 44 42 38 45
12 10 12 6 6 7 4 6 7 5 13 28 49 64 55 41 40 44 48 46 56 77 84 82 78 75 71 67 63 60 62 60 58 67 64 67 64 59 63 53 44 34 42 46 47 48 47 43 38
18 12 11 8 5 7 20 17 9 13 15 14 23 53 29 13 19 23 29 33 43 57 75 81 80 76 71 67 63 62 64 62 69 69 71 67 73 63 61 56 47 42 44 50 51 51 49 43 38
4 12 3 6 1 16 4 9 28 17 15 14 17 29 36 35 29 28 28 31 38 51 65 78 81 79 71 66 62 63 60 58 55 65 66 69 74 74 66 59 55 50 50 52 53 52 48 44 39
17 16 12 14 8 10 2 15 13 21 38 39 42 46 43 33 33 29 32 34 36 41 52 70 79 77 71 64 61 60 57 59 63 62 66 63 77 74 65 61 56 53 55 57 56 53 49 44 39
13 15 6 10 4 3 10 15 16 22 25 31 35 29 35 30 27 29 27 30 34 39 47 59 72 74 67 63 62 60 60 61 64 63 62 75 78 74 66 62 59 58 59 59 56 51 48 44 38
10 15 6 3 5 10 11 13 15 10 11 8 1 11 12 11 11 15 18 24 30 34 39 48 62 70 66 63 61 61 64 64 67 65 71 79 78 70 65 63 63 63 64 60 55 52 47 41 36
7 8 3 10 9 10 5 16 15 21 13 13 8 9 11 6 2 4 9 16 24 30 37 44 54 62 62 59 57 60 65 69 69 72 72 74 75 80 78 73 71 71 68 61 55 49 44 39 33
4 17 14 10 10 8 5 34 10 13 17 17 13 7 4 7 3 5 8 15 22 29 35 44 53 60 59 54 55 61 64 68 69 73 71 75 80 79 75 74 76 75 69 63 56 50 43 37 32
Wind_Direction_500mb
201 171 129 120 60 63 279 253 70 156 184 170 139 159 178 113 161 172 146 160 165 166 162 156 157 156 151 144 139 129 112 101 88 76 67 64 64 68 70 73 75 78 79 88 87 89 84 79 65
159 141 120 106 86 69 265 265 205 203 135 124 117 119 127 136 126 142 148 153 162 166 164 161 158 159 156 152 143 136 121 101 88 80 72 67 65 65 69 71 74 77 82 92 94 91 81 73 73
144 144 112 90 109 170 216 218 169 136 139 149 127 128 143 147 138 150 161 159 164 168 168 167 165 163 163 156 148 145 141 110 94 82 73 69 66 66 69 73 77 78 82 91 96 98 104 104 84
142 122 67 83 230 215 216 203 160 145 211 178 156 121 147 151 149 164 168 173 170 168 170 172 173 171 168 162 158 156 156 125 109 89 77 72 68 66 67 70 75 80 82 87 99 105 110 105 84
147 113 69 80 269 244 252 213 166 163 176 175 167 180 168 169 168 165 165 166 172 169 171 176 179 177 174 174 168 166 166 146 133 103 79 65 61 64 69 76 78 77 82 87 96 102 103 96 88
113 95 73 213 251 248 237 182 171 185 181 173 188 158 171 180 175 171 164 165 167 176 174 181 185 187 186 183 180 176 176 170 153 140 109 84 70 67 69 73 80 84 84 89 93 94 96 97 88
128 87 186 167 243 288 206 175 176 188 188 219 198 149 199 183 175 174 169 167 169 168 179 183 188 186 195 200 190 185 185 182 171 163 132 101 84 76 75 75 78 82 88 90 93 94 99 95 81
130 93 120 217 195 247 185 169 198 182 208 204 191 204 205 187 176 175 175 175 177 178 179 190 189 195 200 207 203 195 195 194 191 174 152 119 97 88 83 78 82 86 90 93 93 94 92 87 84
119 68 174 219 160 233 170 183 177 189 175 189 200 211 196 184 185 182 183 182 183 184 187 195 198 206 210 225 213 209 206 206 195 176 155 111 94 85 86 79 80 77 76 82 90 93 91 87 84
97 116 215 203 197 210 193 193 176 171 197 216 224 223 211 194 196 195 194 193 192 192 193 191 194 201 209 211 221 213 212 211 212 206 193 175 135 105 91 77 80 74 68 73 82 88 88 85 79
128 174 193 205 219 219 188 200 184 169 232 221 226 229 220 210 204 206 206 207 205 200 199 200 200 206 212 211 214 216 225 219 218 213 207 204 189 201 179 163 110 84 81 63 76 87 92 86 75
114 160 183 212 205 170 186 177 199 211 227 235 243 246 233 222 214 213 213 211 209 208 209 213 219 215 212 211 211 214 222 224 226 217 213 208 212 216 194 195 207 156 114 62 47 86 83 68 66
130 203 223 244 239 230 224 233 231 245 243 249 250 240 236 231 224 220 216 215 215 215 216 220 225 229 222 215 212 215 222 232 232 231 218 220 217 221 211 211 194 190 176 135 37 7 37 57 73
146 214 281 270 242 240 220 236 217 249 246 244 246 246 240 234 231 224 219 218 220 220 221 224 228 235 234 225 222 216 219 227 235 233 227 219 223 228 222 223 215 200 191 180 138 347 270 157 102
85 342 325 245 249 240 208 292 234 251 251 253 248 246 241 239 230 230 231 227 226 226 227 229 232 235 239 233 229 223 216 224 228 232 233 225 224 228 229 234 223 209 187 183 171 227 232 182 135
62 46 350 267 170 224 160 267 260 244 243 251 249 246 244 240 240 236 232 231 230 231 232 234 237 239 239 237 235 232 227 222 227 229 233 236 221 228 233 228 219 205 191 195 181 186 191 175 145
8 223 210 308 204 141 170 262 253 239 246 260 258 251 249 249 242 240 235 232 231 233 235 236 239 241 241 239 237 234 230 223 223 230 232 230 232 232 233 242 239 218 199 198 182 179 212 186 159
197 210 235 233 210 183 206 258 273 256 258 265 270 265 258 253 250 246 241 236 232 233 235 236 239 241 240 237 234 232 225 222 220 226 226 233 234 237 242 235 245 213 202 199 180 209 206 193 174
140 183 205 240 229 177 229 244 254 268 251 257 261 262 259 258 260 251 244 238 236 234 234 235 236 236 233 231 227 224 217 216 215 222 231 235 238 228 219 224 213 241 209 198 186 211 203 181 175
161 190 244 280 242 189 273 257 249 256 243 244 253 259 263 263 261 255 247 239 237 237 236 233 234 233 230 229 228 224 217 218 220 220 228 230 231 232 224 218 224 228 203 193 204 226 202 188 180
214 194 210 228 325 236 311 275 235 261 248 255 258 260 262 263 268 263 251 242 238 234 235 234 234 231 229 228 226 223 219 217 219 219 228 228 219 217 220 214 211 212 208 205 214 220 212 202 187
234 203 178 183 84 250 8 286 250 230 241 251 259 259 266 271 272 271 261 246 240 238 234 232 232 230 228 227 226 226 226 221 221 220 213 215 232 220 224 212 209 211 227 218 210 208 208 209 198
228 124 166 138 171 2 287 280 207 93 258 255 256 264 273 287 282 273 267 257 245 238 235 231 230 229 228 229 227 225 223 223 223 209 218 228 223 220 209 202 204 214 211 203 206 202 199 201 212
146 81 55 56 93 270 201 194 185 184 202 257 264 269 279 288 296 276 257 242 237 236 234 229 228 228 227 226 224 221 222 219 220 219 220 215 214 216 195 205 200 204 214 205 203 199 199 204 201
141 116 293 322 5 241 1 223 258 276 236 235 244 261 289 295 287 271 261 251 245 233 228 225 224 226 227 226 224 223 219 219 225 221 224 209 208 201 201 202 201 203 219 205 199 198 198 197 203
198 167 170 211 206 268 151 237 249 234 267 249 261 282 284 281 281 267 259 252 243 233 230 224 223 225 226 225 224 221 218 216 224 222 213 223 210 210 205 201 202 206 205 200 198 198 198 197 198
195 210 170 88 86 12 222 281 282 261 279 296 287 294 290 280 270 256 251 247 237 229 229 225 221 223 225 224 223 220 215 216 215 221 226 218 214 207 205 201 201 206 204 200 199 198 198 196 196
164 166 91 356 188 254 270 270 224 246 225 202 187 318 347 294 265 237 239 243 237 232 230 225 220 222 223 221 223 218 216 215 218 220 222 219 213 204 206 204 203 203 201 200 199 198 197 197 192
145 195 168 130 160 189 290 262 217 222 188 176 224 324 342 343 319 244 255 246 233 231 229 222 219 221 224 225 224 221 219 217 219 220 222 218 215 207 205 205 203 203 201 201 201 201 198 194 193
252 198 160 149 217 235 166 263 183 198 169 184 269 267 284 56 8 271 255 246 239 230 226 222 218 221 225 228 226 226 225 225 225 224 225 223 216 211 209 207 204 203 201 200 201 201 197 197 194
Wind_Speed_850mb
6 6 7 4 6 8 3 6 1 5 3 6 16 11 10 5 5 3 32 32 33 34 31 29 26 24 23 22 20 18 18 20 21 26 29 30 31 30 28 27 26 26 25 29 29 27 31 30 30
9 9 8 6 7 5 7 6 8 8 13 28 20 15 5 4 8 19 30 30 33 32 31 29 28 26 23 21 19 18 16 18 20 24 26 29 30 29 28 27 27 25 24 26 24 32 31 28 28
13 11 4 8 6 6 7 8 8 12 25 9 9 6 8 10 20 35 27 29 34 33 32 29 27 26 23 21 19 17 14 12 16 20 23 26 26 26 26 26 25 25 23 23 32 32 33 25 25
12 8 11 7 5 6 6 6 11 25 8 9 12 8 9 14 26 26 30 28 34 35 32 29 26 25 23 21 18 16 13 10 12 16 19 21 22 23 24 25 25 25 25 26 28 27 25 20 21
12 6 8 6 6 4 8 7 31 13 6 10 14 10 9 20 21 24 29 32 36 37 31 28 26 24 23 20 18 16 15 12 13 11 15 17 20 21 22 23 23 23 24 24 25 25 23 21 18
7 6 8 4 7 6 6 18 21 12 7 12 9 16 11 22 26 28 30 34 32 32 29 26 25 23 22 21 18 17 15 12 14 10 10 11 14 17 19 20 22 24 25 24 23 22 21 18 15
11 8 8 8 6 5 9 24 16 18 11 11 7 12 7 26 32 34 35 35 35 30 29 26 24 22 19 19 20 18 16 14 14 10 8 9 12 16 18 18 18 21 22 23 22 21 18 16 15
10 12 8 5 8 9 11 24 13 25 14 11 17 8 7 32 35 39 40 37 38 35 34 27 25 23 20 17 20 19 17 15 12 11 8 10 14 18 21 21 21 20 19 20 21 21 20 19 19
9 9 5 9 13 9 16 12 10 11 11 22 23 13 10 33 39 43 46 44 43 41 40 36 30 25 24 25 22 21 20 17 16 16 12 12 14 18 22 25 27 28 24 21 20 21 22 20 20
8 8 16 8 10 7 11 11 18 11 13 18 23 29 19 30 43 47 51 51 49 48 47 40 39 36 38 32 29 24 22 21 21 19 16 9 7 9 9 17 20 24 26 23 22 22 24 22 22
6 8 8 8 9 8 8 9 16 16 9 27 35 39 36 34 47 50 50 51 48 49 53 50 44 39 39 35 33 30 27 27 30 26 22 16 11 11 7 2 5 10 18 20 17 18 18 16 17
5 3 7 3 7 5 6 6 11 29 25 14 27 30 36 43 50 53 55 54 54 54 56 55 52 40 40 40 37 36 36 37 35 31 28 21 18 17 19 11 7 10 17 14 10 8 9 9 11
4 3 6 7 8 9 8 16 14 31 35 38 30 29 36 44 51 54 55 53 54 56 58 60 56 48 43 44 43 43 42 42 36 37 34 30 25 23 25 19 14 12 10 13 9 10 1 3 8
4 2 7 8 10 9 7 6 6 16 28 42 38 37 37 44 49 56 60 61 61 58 59 60 59 56 49 52 50 48 48 47 43 41 42 36 30 28 26 23 21 19 17 11 11 9 7 6 7
4 5 10 10 6 7 5 14 19 47 40 33 36 42 42 47 53 60 60 62 61 61 60 60 60 59 57 54 54 52 50 51 51 47 38 40 38 33 28 33 29 24 21 17 13 3 6 9 12
7 9 3 4 9 5 13 17 13 11 25 44 47 47 48 52 58 60 63 63 64 64 64 62 61 61 61 59 59 61 60 55 52 54 49 45 47 37 38 39 33 34 27 22 16 15 13 15 15
10 6 9 14 18 5 8 15 9 9 17 31 34 42 50 55 62 65 66 67 69 67 66 64 62 61 61 61 62 63 63 65 56 52 53 51 42 42 47 36 37 39 35 28 23 22 13 19 25
13 9 9 10 8 6 9 26 24 31 24 39 44 46 51 59 67 63 66 68 69 69 68 65 64 63 60 58 59 60 59 64 61 55 55 53 52 48 46 42 42 42 41 33 31 17 23 23 30
11 9 11 10 7 8 18 21 29 40 34 55 69 74 78 82 78 68 67 71 72 74 73 69 65 62 58 56 56 57 59 61 61 61 62 60 59 52 51 46 49 48 38 34 37 25 32 38 40
7 7 11 12 5 12 16 25 25 35 35 61 77 82 90 89 84 76 72 72 81 79 75 70 67 64 61 58 54 54 58 60 58 62 62 64 69 61 59 50 44 43 43 40 36 34 40 44 47
9 12 10 15 5 6 11 16 14 18 46 65 82 86 88 80 79 76 74 77 82 86 81 75 71 68 66 63 59 59 59 59 60 64 58 73 52 41 44 44 43 38 41 37 40 42 41 45 53
12 17 10 7 4 8 3 15 11 15 18 14 64 75 72 64 61 64 61 67 80 85 85 79 74 70 70 66 65 66 67 71 70 66 64 53 51 51 50 52 46 37 37 43 45 44 42 38 45
12 10 12 6 6 7 4 6 7 5 13 28 49 64 55 41 40 44 48 46 56 77 84 82 78 75 71 67 63 60 62 60 58 67 64 67 64 59 63 53 44 34 42 46 47 48 47 43 38
18 12 11 8 5 7 20 17 9 13 15 14 23 53 29 13 19 23 29 33 43 57 75 81 80 76 71 67 63 62 64 62 69 69 71 67 73 63 61 56 47 42 44 50 51 51 49 43 38
4 12 3 6 1 16 4 9 28 17 15 14 17 29 36 35 29 28 28 31 38 51 65 78 81 79 71 66 62 63 60 58 55 65 66 69 74 74 66 59 55 50 50 52 53 52 48 44 39
17 16 12 14 8 10 2 15 13 21 38 39 42 46 43 33 33 29 32 34 36 41 52 70 79 77 71 64 61 60 57 59 63 62 66 63 77 74 65 61 56 53 55 57 56 53 49 44 39
13 15 6 10 4 3 10 15 16 22 25 31 35 29 35 30 27 29 27 30 34 39 47 59 72 74 67 63 62 60 60 61 64 63 62 75 78 74 66 62 59 58 59 59 56 51 48 44 38
10 15 6 3 5 10 11 13 15 10 11 8 1 11 12 11 11 15 18 24 30 34 39 48 62 70 66 63 61 61 64 64 67 65 71 79 78 70 65 63 63 63 64 60 55 52 47 41 36
7 8 3 10 9 10 5 16 15 21 13 13 8 9 11 6 2 4 9 16 24 30 37 44 54 62 62 59 57 60 65 69 69 72 72 74 75 80 78 73 71 71 68 61 55 49 44 39 33
4 17 14 10 10 8 5 34 10 13 17 17 13 7 4 7 3 5 8 15 22 29 35 44 53 60 59 54 55 61 64 68 69 73 71 75 80 79 75 74 76 75 69 63 56 50 43 37 32
Wind_Direction_850mb
201 171 129 120 60 63 279 253 70 156 184 170 139 159 178 113 161 172 146 160 165 166 162 156 157 156 151 144 139 129 112 101 88 76 67 64 64 68 70 73 75 78 79 88 87 89 84 79 65
159 141 120 106 86 69 265 265 205 203 135 124 117 119 127 136 126 142 148 153 162 166 164 161 158 159 156 152 143 136 121 101 88 80 72 67 65 65 69 71 74 77 82 92 94 91 81 73 73
144 144 112 90 109 170 216 218 169 136 139 149 127 128 143 147 138 150 161 159 164 168 168 167 165 163 163 156 148 145 141 110 94 82 73 69 66 66 69 73 77 78 82 91 96 98 104 104 84
142 122 67 83 230 215 216 203 160 145 211 178 156 121 147 151 149 164 168 173 170 168 170 172 173 171 168 162 158 156 156 125 109 89 77 72 68 66 67 70 75 80 82 87 99 105 110 105 84
147 113 69 80 269 244 252 213 166 163 176 175 167 180 168 169 168 165 165 166 172 169 171 176 179 177 174 174 168 166 166 146 133 103 79 65 61 64 69 76 78 77 82 87 96 102 103 96 88
113 95 73 213 251 248 237 182 171 185 181 173 188 158 171 180 175 171 164 165 167 176 174 181 185 187 186 183 180 176 176 170 153 140 109 84 70 67 69 73 80 84 84 89 93 94 96 97 88
128 87 186 167 243 288 206 175 176 188 188 219 198 149 199 183 175 174 169 167 169 168 179 183 188 186 195 200 190 185 185 182 171 163 132 101 84 76 75 75 78 82 88 90 93 94 99 95 81
130 93 120 217 195 247 185 169 198 182 208 204 191 204 205 187 176 175 175 175 177 178 179 190 189 195 200 207 203 195 195 194 191 174 152 119 97 88 83 78 82 86 90 93 93 94 92 87 84
119 68 174 219 160 233 170 183 177 189 175 189 200 211 196 184 185 182 183 182 183 184 187 195 198 206 210 225 213 209 206 206 195 176 155 111 94 85 86 79 80 77 76 82 90 93 91 87 84
97 116 215 203 197 210 193 193 176 171 197 216 224 223 211 194 196 195 194 193 192 192 193 191 194 201 209 211 221 213 212 211 212 206 193 175 135 105 91 77 80 74 68 73 82 88 88 85 79
128 174 193 205 219 219 188 200 184 169 232 221 226 229 220 210 204 206 206 207 205 200 199 200 200 206 212 211 214 216 225 219 218 213 207 204 189 201 179 163 110 84 81 63 76 87 92 86 75
114 160 183 212 205 170 186 177 199 211 227 235 243 246 233 222 214 213 213 211 209 208 209 213 219 215 212 211 211 214 222 224 226 217 213 208 212 216 194 195 207 156 114 62 47 86 83 68 66
130 203 223 244 239 230 224 233 231 245 243 249 250 240 236 231 224 220 216 215 215 215 216 220 225 229 222 215 212 215 222 232 232 231 218 220 217 221 211 211 194 190 176 135 37 7 37 57 73
146 214 281 270 242 240 220 236 217 249 246 244 246 246 240 234 231 224 219 218 220 220 221 224 228 235 234 225 222 216 219 227 235 233 227 219 223 228 222 223 215 200 191 180 138 347 270 157 102
85 342 325 245 249 240 208 292 234 251 251 253 248 246 241 239 230 230 231 227 226 226 227 229 232 235 239 233 229 223 216 224 228 232 233 225 224 228 229 234 223 209 187 183 171 227 232 182 135
62 46 350 267 170 224 160 267 260 244 243 251 249 246 244 240 240 236 232 231 230 231 232 234 237 239 239 237 235 232 227 222 227 229 233 236 221 228 233 228 219 205 191 195 181 186 191 175 145
8 223 210 308 204 141 170 262 253 239 246 260 258 251 249 249 242 240 235 232 231 233 235 236 239 241 241 239 237 234 230 223 223 230 232 230 232 232 233 242 239 218 199 198 182 179 212 186 159
197 210 235 233 210 183 206 258 273 256 258 265 270 265 258 253 250 246 241 236 232 233 235 236 239 241 240 237 234 232 225 222 220 226 226 233 234 237 242 235 245 213 202 199 180 209 206 193 174
140 183 205 240 229 177 229 244 254 268 251 257 261 262 259 258 260 251 244 238 236 234 234 235 236 236 233 231 227 224 217 216 215 222 231 235 238 228 219 224 213 241 209 198 186 211 203 181 175
161 190 244 280 242 189 273 257 249 256 243 244 253 259 263 263 261 255 247 239 237 237 236 233 234 233 230 229 228 224 217 218 220 220 228 230 231 232 224 218 224 228 203 193 204 226 202 188 180
214 194 210 228 325 236 311 275 235 261 248 255 258 260 262 263 268 263 251 242 238 234 235 234 234 231 229 228 226 223 219 217 219 219 228 228 219 217 220 214 211 212 208 205 214 220 212 202 187
234 203 178 183 84 250 8 286 250 230 241 251 259 259 266 271 272 271 261 246 240 238 234 232 232 230 228 227 226 226 226 221 221 220 213 215 232 220 224 212 209 211 227 218 210 208 208 209 198
228 124 166 138 171 2 287 280 207 93 258 255 256 264 273 287 282 273 267 257 245 238 235 231 230 229 228 229 227 225 223 223 223 209 218 228 223 220 209 202 204 214 211 203 206 202 199 201 212
146 81 55 56 93 270 201 194 185 184 202 257 264 269 279 288 296 276 257 242 237 236 234 229 228 228 227 226 224 221 222 219 220 219 220 215 214 216 195 205 200 204 214 205 203 199 199 204 201
141 116 293 322 5 241 1 223 258 276 236 235 244 261 289 295 287 271 261 251 245 233 228 225 224 226 227 226 224 223 219 219 225 221 224 209 208 201 201 202 201 203 219 205 199 198 198 197 203
198 167 170 211 206 268 151 237 249 234 267 249 261 282 284 281 281 267 259 252 243 233 230 224 223 225 226 225 224 221 218 216 224 222 213 223 210 210 205 201 202 206 205 200 198 198 198 197 198
195 210 170 88 86 12 222 281 282 261 279 296 287 294 290 280 270 256 251 247 237 229 229 225 221 223 225 224 223 220 215 216 215 221 226 218 214 207 205 201 201 206 204 200 199 198 198 196 196
164 166 91 356 188 254 270 270 224 246 225 202 187 318 347 294 265 237 239 243 237 232 230 225 220 222 223 221 223 218 216 215 218 220 222 219 213 204 206 204 203 203 201 200 199 198 197 197 192
145 195 168 130 160 189 290 262 217 222 188 176 224 324 342 343 319 244 255 246 233 231 229 222 219 221 224 225 224 221 219 217 219 220 222 218 215 207 205 205 203 203 201 201 201 201 198 194 193
252 198 160 149 217 235 166 263 183 198 169 184 269 267 284 56 8 271 255 246 239 230 226 222 218 221 225 228 226 226 225 225 225 224 225 223 216 211 209 207 204 203 201 200 201 201 197 197 194